User: anonymous   Login
Location: Unspecified
(0.0000°N, 0.0000°E)
Time: 14:09:40
(UTC+00:00)
Language:

Transit 2A Rocket - Orbit

View from above orbital plane
View from above orbital plane
View from above satellite
View from above satellite

Ground track
Ground track

The orbit data is extracted from the following two-line orbital elements,

1 00047U 60007C   17021.80576102 -.00000020  00000-0  20682-4 0  9999
2 00047  66.6643 237.1838 0222715 133.6032 228.3795 14.41889612955967
Epoch (UTC): 21 January 2017 19:20:17
Eccentricity: 0.0222715
inclination: 66.6643°
perigee height: 593 km
apogee height: 911 km
right ascension of ascending node: 237.1838°
argument of perigee: 133.6032°
revolutions per day: 14.41889612
mean anomaly at epoch: 228.3795°
orbit number at epoch: 95596

The dashed part of the orbit path shows where the satellite is in the earth's shadow,  

DLR